Location: Góry Miechowskie
(50.3599°N, 20.1803°E)
Time: 15:54:59
(UTC+00:00)

Meteor 1-11 - Pass Details

Date: 15 September 2024
Orbit: 841 x 884 km, 81.2° (Epoch: 08 October)

Event Time Altitude Azimuth Distance (km) Brightness Sun altitude
Rises 21:47:03 0° 351° (N) 3,487 8.4 -36.1°
Reaches altitude 10° 21:49:40 10° 359° (N) 2,549 7.4 -36.2°
Enters shadow 21:53:11 31° 27° (NNE) 1,506 5.8 -36.4°
